DAL024 GMTT-LEPA

Flight info

Callsign DAL024
Flight time 1h 23m
Altitude 36000
Route BARPA M985 PIMOS M445 RIXUR N851 IZA DCT BITLO DCT EDULI
Aircraft A320/M-SDE3FGHIRWY/LB1

Departure

Time 2026-05-05 17:45
Airport Tangier Ibn Battuta Airport (GMTT)

Arrival

Time 2026-05-05 19:09
Airport Palma de Mallorca Airport (LEPA)
Time Latitude Longitude Altitude Speed Heading
2026-05-05 17:23 35.72539 -5.91275 65 ft 0 kts 356°
2026-05-05 17:34 35.72524 -5.91274 59 ft 4 kts 356°
2026-05-05 17:35 35.72497 -5.91272 59 ft 4 kts 356°
2026-05-05 17:35 35.72470 -5.91269 59 ft 4 kts 351°
2026-05-05 17:35 35.72454 -5.91265 59 ft 1 kts 341°
2026-05-05 17:37 35.72462 -5.91312 65 ft 8 kts 240°
2026-05-05 17:37 35.72439 -5.91383 56 ft 10 kts 261°
2026-05-05 17:38 35.72430 -5.91481 63 ft 13 kts 265°
2026-05-05 17:38 35.72435 -5.91603 60 ft 16 kts 290°
2026-05-05 17:38 35.72528 -5.91684 60 ft 18 kts 348°
2026-05-05 17:38 35.72632 -5.91700 60 ft 15 kts 355°
2026-05-05 17:39 35.72741 -5.91709 60 ft 17 kts 356°
2026-05-05 17:39 35.72863 -5.91717 59 ft 15 kts 357°
2026-05-05 17:39 35.72939 -5.91685 57 ft 12 kts 58°
2026-05-05 17:39 35.72937 -5.91597 61 ft 9 kts 101°
2026-05-05 17:40 35.72930 -5.91530 60 ft 7 kts 96°
2026-05-05 17:40 35.72926 -5.91483 57 ft 4 kts 96°
2026-05-05 17:40 35.72922 -5.91430 63 ft 8 kts 96°
2026-05-05 17:40 35.72917 -5.91372 64 ft 6 kts 96°
2026-05-05 17:41 35.72912 -5.91312 61 ft 10 kts 96°
2026-05-05 17:41 35.72905 -5.91234 65 ft 8 kts 96°
2026-05-05 17:41 35.72900 -5.91176 58 ft 6 kts 96°
2026-05-05 17:41 35.72892 -5.91089 67 ft 20 kts 97°
2026-05-05 17:42 35.72874 -5.90914 69 ft 19 kts 96°
2026-05-05 17:42 35.72858 -5.90762 71 ft 17 kts 97°
2026-05-05 17:42 35.72845 -5.90630 71 ft 14 kts 96°
2026-05-05 17:42 35.72834 -5.90517 74 ft 12 kts 97°
2026-05-05 17:43 35.72825 -5.90426 72 ft 10 kts 97°
2026-05-05 17:43 35.72818 -5.90348 76 ft 11 kts 97°
2026-05-05 17:43 35.72818 -5.90268 77 ft 8 kts 82°
2026-05-05 17:43 35.72845 -5.90216 68 ft 7 kts 40°
2026-05-05 17:44 35.72897 -5.90192 75 ft 10 kts
2026-05-05 17:44 35.72968 -5.90225 68 ft 13 kts 317°
2026-05-05 17:44 35.72996 -5.90314 75 ft 7 kts 276°
2026-05-05 17:44 35.73003 -5.90391 67 ft 13 kts 276°
2026-05-05 17:45 35.73045 -5.90778 63 ft 81 kts 277°
2026-05-05 17:45 35.73135 -5.91723 58 ft 139 kts 277°
2026-05-05 17:45 35.73239 -5.93046 341 ft 161 kts 275°
2026-05-05 17:45 35.73369 -5.94417 1074 ft 161 kts 279°
2026-05-05 17:46 35.73540 -5.95776 1818 ft 161 kts 281°
2026-05-05 17:46 35.73726 -5.97207 2223 ft 180 kts 280°
2026-05-05 17:46 35.73933 -5.98830 2534 ft 205 kts 280°
2026-05-05 17:46 35.74009 -6.00651 3145 ft 220 kts 263°
2026-05-05 17:47 35.73519 -6.02464 3881 ft 229 kts 241°
2026-05-05 17:47 35.72447 -6.03952 4641 ft 238 kts 217°
2026-05-05 17:47 35.70939 -6.04801 5407 ft 244 kts 192°
2026-05-05 17:47 35.69240 -6.04810 6216 ft 248 kts 167°
2026-05-05 17:48 35.67665 -6.03939 6988 ft 252 kts 142°
2026-05-05 17:48 35.66515 -6.02305 7721 ft 257 kts 117°
2026-05-05 17:48 35.66049 -6.00180 8427 ft 263 kts 90°
2026-05-05 17:48 35.66382 -5.97978 9167 ft 266 kts 67°
2026-05-05 17:49 35.67082 -5.95852 9951 ft 270 kts 67°
2026-05-05 17:49 35.67795 -5.93695 10660 ft 274 kts 67°
2026-05-05 17:49 35.68519 -5.91509 11368 ft 278 kts 67°
2026-05-05 17:49 35.69247 -5.89293 12100 ft 281 kts 67°
2026-05-05 17:50 35.69981 -5.87044 12812 ft 285 kts 67°
2026-05-05 17:50 35.70723 -5.84769 13519 ft 289 kts 67°
2026-05-05 17:50 35.71475 -5.82457 14185 ft 293 kts 66°
2026-05-05 17:50 35.72446 -5.80249 14808 ft 294 kts 52°
2026-05-05 17:51 35.73837 -5.78312 15046 ft 314 kts 42°
2026-05-05 17:51 35.75447 -5.76351 15221 ft 337 kts 43°
2026-05-05 17:51 35.77176 -5.74247 15358 ft 360 kts 42°
2026-05-05 17:51 35.79004 -5.72017 15557 ft 380 kts 43°
2026-05-05 17:52 35.80904 -5.69693 16066 ft 387 kts 43°
2026-05-05 17:52 35.82769 -5.67295 16656 ft 393 kts 49°
2026-05-05 17:52 35.84263 -5.64442 17248 ft 399 kts 62°
2026-05-05 17:52 35.85504 -5.61363 17864 ft 402 kts 62°
2026-05-05 17:53 35.86751 -5.58269 18470 ft 405 kts 62°
2026-05-05 17:53 35.88015 -5.55135 18982 ft 409 kts 62°
2026-05-05 17:53 35.89293 -5.51966 19486 ft 413 kts 62°
2026-05-05 17:53 35.90577 -5.48788 19982 ft 418 kts 62°
2026-05-05 17:54 35.91880 -5.45564 20494 ft 422 kts 62°
2026-05-05 17:54 35.93197 -5.42302 20997 ft 426 kts 62°
2026-05-05 17:54 35.94522 -5.39011 21486 ft 431 kts 62°
2026-05-05 17:54 35.95857 -5.35689 21966 ft 435 kts 63°
2026-05-05 17:55 35.96746 -5.33473 22281 ft 437 kts 63°
2026-05-05 17:55 35.98108 -5.30081 22746 ft 442 kts 63°
2026-05-05 17:55 35.99477 -5.26671 23197 ft 446 kts 63°
2026-05-05 17:55 36.00862 -5.23219 23618 ft 450 kts 63°
2026-05-05 17:56 36.02275 -5.19772 23985 ft 453 kts 62°
2026-05-05 17:56 36.03729 -5.16307 24356 ft 456 kts 61°
2026-05-05 17:56 36.05207 -5.12821 24723 ft 459 kts 61°
2026-05-05 17:56 36.06693 -5.09321 25081 ft 461 kts 61°
2026-05-05 17:57 36.08186 -5.05793 25424 ft 464 kts 61°
2026-05-05 17:57 36.09679 -5.02250 25765 ft 467 kts 61°
2026-05-05 17:57 36.11176 -4.98672 26117 ft 469 kts 61°
2026-05-05 17:57 36.12672 -4.95079 26454 ft 472 kts 61°
2026-05-05 17:58 36.14214 -4.91480 26773 ft 474 kts 57°
2026-05-05 17:58 36.16090 -4.88123 27103 ft 474 kts 48°
2026-05-05 17:58 36.18312 -4.85103 27414 ft 475 kts 43°
2026-05-05 17:58 36.20593 -4.82171 27740 ft 477 kts 43°
2026-05-05 17:59 36.22916 -4.79189 28055 ft 479 kts 43°
2026-05-05 17:59 36.25231 -4.76213 28360 ft 481 kts 43°
2026-05-05 17:59 36.27554 -4.73219 28659 ft 484 kts 43°
2026-05-05 17:59 36.29890 -4.70199 28952 ft 486 kts 43°
2026-05-05 18:00 36.32222 -4.67176 29213 ft 488 kts 43°
2026-05-05 18:00 36.34584 -4.64116 29480 ft 491 kts 43°
2026-05-05 18:00 36.36961 -4.61039 29735 ft 493 kts 43°
2026-05-05 18:00 36.39332 -4.57967 29984 ft 495 kts 43°
2026-05-05 18:01 36.41706 -4.54884 30191 ft 497 kts 43°
2026-05-05 18:01 36.44101 -4.51763 30387 ft 499 kts 43°
2026-05-05 18:01 36.46496 -4.48638 30636 ft 499 kts 43°
2026-05-05 18:01 36.48885 -4.45520 30921 ft 499 kts 43°
2026-05-05 18:02 36.51279 -4.42395 31193 ft 499 kts 43°
2026-05-05 18:02 36.53686 -4.39253 31462 ft 499 kts 44°
2026-05-05 18:02 36.56071 -4.36136 31737 ft 499 kts 44°
2026-05-05 18:02 36.58461 -4.33003 32007 ft 499 kts 44°
2026-05-05 18:03 36.60846 -4.29875 32291 ft 499 kts 44°
2026-05-05 18:03 36.63254 -4.26721 32555 ft 500 kts 44°
2026-05-05 18:03 36.65640 -4.23597 32821 ft 500 kts 44°
2026-05-05 18:03 36.68026 -4.20466 33094 ft 500 kts 44°
2026-05-05 18:04 36.70428 -4.17313 33368 ft 500 kts 44°
2026-05-05 18:04 36.72823 -4.14169 33645 ft 500 kts 44°
2026-05-05 18:04 36.75218 -4.11018 33899 ft 500 kts 44°
2026-05-05 18:04 36.77611 -4.07863 34158 ft 500 kts 44°
2026-05-05 18:05 36.79993 -4.04711 34429 ft 500 kts 44°
2026-05-05 18:05 36.82380 -4.01549 34713 ft 499 kts 44°
2026-05-05 18:05 36.84761 -3.98397 34961 ft 499 kts 44°
2026-05-05 18:05 36.87137 -3.95248 35202 ft 498 kts 44°
2026-05-05 18:06 36.89514 -3.92099 35461 ft 498 kts 44°
2026-05-05 18:06 36.91088 -3.90014 35626 ft 498 kts 43°
2026-05-05 18:06 36.94263 -3.85811 35902 ft 498 kts 43°
2026-05-05 18:07 36.99009 -3.79514 35970 ft 498 kts 44°
2026-05-05 18:07 37.03744 -3.73201 35973 ft 498 kts 43°
2026-05-05 18:08 37.08483 -3.66877 35973 ft 498 kts 44°
2026-05-05 18:08 37.12440 -3.59753 35973 ft 503 kts 62°
2026-05-05 18:09 37.15548 -3.51863 35974 ft 504 kts 62°
2026-05-05 18:09 37.18667 -3.43994 35973 ft 504 kts 62°
2026-05-05 18:10 37.21761 -3.36182 35973 ft 504 kts 62°
2026-05-05 18:10 37.24884 -3.28229 35974 ft 504 kts 62°
2026-05-05 18:11 37.27959 -3.20370 35972 ft 505 kts 62°
2026-05-05 18:11 37.31083 -3.12393 35967 ft 505 kts 62°
2026-05-05 18:12 37.34147 -3.04537 35959 ft 505 kts 62°
2026-05-05 18:12 37.37234 -2.96610 35958 ft 505 kts 62°
2026-05-05 18:13 37.40320 -2.88668 35959 ft 505 kts 62°
2026-05-05 18:13 37.43390 -2.80725 35958 ft 505 kts 63°
2026-05-05 18:14 37.46464 -2.72772 35958 ft 505 kts 62°
2026-05-05 18:14 37.49537 -2.64800 35953 ft 506 kts 63°
2026-05-05 18:15 37.52595 -2.56819 35956 ft 506 kts 63°
2026-05-05 18:15 37.55652 -2.48820 35953 ft 507 kts 63°
2026-05-05 18:16 37.58713 -2.40816 35948 ft 507 kts 63°
2026-05-05 18:16 37.61766 -2.32812 35943 ft 507 kts 63°
2026-05-05 18:17 37.64826 -2.24783 35943 ft 507 kts 63°
2026-05-05 18:17 37.67875 -2.16749 35928 ft 507 kts 63°
2026-05-05 18:18 37.70924 -2.08704 35923 ft 507 kts 63°
2026-05-05 18:18 37.73955 -2.00668 35925 ft 507 kts 63°
2026-05-05 18:19 37.76980 -1.92610 35913 ft 507 kts 63°
2026-05-05 18:19 37.80001 -1.84562 35915 ft 508 kts 63°
2026-05-05 18:20 37.83030 -1.76485 35912 ft 508 kts 63°
2026-05-05 18:20 37.86055 -1.68399 35909 ft 508 kts 63°
2026-05-05 18:21 37.89058 -1.60323 35905 ft 508 kts 63°
2026-05-05 18:21 37.92064 -1.52229 35896 ft 508 kts 63°
2026-05-05 18:22 37.95072 -1.44129 35892 ft 508 kts 63°
2026-05-05 18:22 37.98065 -1.36042 35890 ft 508 kts 63°
2026-05-05 18:23 38.01054 -1.27924 35886 ft 508 kts 63°
2026-05-05 18:23 38.04042 -1.19790 35893 ft 508 kts 64°
2026-05-05 18:24 38.07019 -1.11658 35896 ft 508 kts 64°
2026-05-05 18:24 38.09988 -1.03526 35901 ft 508 kts 64°
2026-05-05 18:25 38.12952 -0.95391 35901 ft 508 kts 64°
2026-05-05 18:25 38.15917 -0.87248 35909 ft 508 kts 64°
2026-05-05 18:26 38.18876 -0.79088 35917 ft 508 kts 64°
2026-05-05 18:26 38.21825 -0.70935 35919 ft 508 kts 64°
2026-05-05 18:27 38.24774 -0.62759 35913 ft 508 kts 64°
2026-05-05 18:27 38.27691 -0.54572 35917 ft 509 kts 65°
2026-05-05 18:28 38.31714 -0.42007 35919 ft 510 kts 68°
2026-05-05 18:28 38.34281 -0.33685 35920 ft 498 kts 67°
2026-05-05 18:29 38.36853 -0.25535 35916 ft 494 kts 66°
2026-05-05 18:29 38.39541 -0.17475 35915 ft 493 kts 65°
2026-05-05 18:30 38.42215 -0.09597 35904 ft 475 kts 65°
2026-05-05 18:30 38.44795 -0.01883 35903 ft 472 kts 66°
2026-05-05 18:31 38.47308 0.05828 35900 ft 471 kts 67°
2026-05-05 18:31 38.49773 0.13601 35900 ft 471 kts 67°
2026-05-05 18:32 38.52238 0.21356 35900 ft 471 kts 67°
2026-05-05 18:32 38.54713 0.29096 35895 ft 471 kts 67°
2026-05-05 18:33 38.57188 0.36843 35897 ft 471 kts 67°
2026-05-05 18:33 38.59653 0.44586 35897 ft 465 kts 67°
2026-05-05 18:34 38.62061 0.52187 35899 ft 460 kts 67°
2026-05-05 18:34 38.64451 0.59760 35902 ft 459 kts 68°
2026-05-05 18:35 38.66671 0.67417 35902 ft 459 kts 76°
2026-05-05 18:35 38.67763 0.75455 35902 ft 457 kts 84°
2026-05-05 18:36 38.68650 0.83495 35901 ft 457 kts 84°
2026-05-05 18:36 38.69553 0.91542 35899 ft 457 kts 84°
2026-05-05 18:37 38.70305 0.98306 35903 ft 457 kts 84°
2026-05-05 18:37 38.71319 1.07650 35904 ft 457 kts 84°
2026-05-05 18:38 38.72042 1.14366 35909 ft 457 kts 84°
2026-05-05 18:38 38.72906 1.22434 35907 ft 457 kts 84°
2026-05-05 18:39 38.73768 1.30498 35911 ft 457 kts 84°
2026-05-05 18:39 38.74630 1.38630 35910 ft 458 kts 84°
2026-05-05 18:40 38.75488 1.46843 35240 ft 475 kts 84°
2026-05-05 18:40 38.75928 1.51069 33842 ft 496 kts 85°
2026-05-05 18:40 38.76394 1.55539 32148 ft 516 kts 84°
2026-05-05 18:41 38.76875 1.60164 30793 ft 528 kts 84°
2026-05-05 18:41 38.77360 1.64834 29867 ft 527 kts 84°
2026-05-05 18:41 38.77842 1.69450 28638 ft 519 kts 84°
2026-05-05 18:41 38.78314 1.73967 28014 ft 505 kts 84°
2026-05-05 18:42 38.78770 1.78374 27284 ft 495 kts 84°
2026-05-05 18:42 38.79212 1.82720 26592 ft 487 kts 84°
2026-05-05 18:42 38.79694 1.86975 25908 ft 480 kts 79°
2026-05-05 18:42 38.80597 1.91054 25234 ft 473 kts 69°
2026-05-05 18:43 38.81974 1.94850 24647 ft 464 kts 59°
2026-05-05 18:43 38.83740 1.98263 24092 ft 454 kts 50°
2026-05-05 18:43 38.85670 2.01431 23563 ft 448 kts 50°
2026-05-05 18:43 38.87574 2.04569 22979 ft 447 kts 50°
2026-05-05 18:44 38.89466 2.07696 22502 ft 442 kts 50°
2026-05-05 18:44 38.91344 2.10801 22014 ft 438 kts 50°
2026-05-05 18:44 38.93207 2.13887 21568 ft 434 kts 50°
2026-05-05 18:44 38.95048 2.16946 21076 ft 431 kts 50°
2026-05-05 18:45 38.96866 2.19963 20621 ft 427 kts 50°
2026-05-05 18:45 38.98683 2.22984 20162 ft 424 kts 50°
2026-05-05 18:45 39.00486 2.25989 19678 ft 422 kts 50°
2026-05-05 18:45 39.02270 2.28963 19227 ft 420 kts 50°
2026-05-05 18:46 39.04058 2.31941 18732 ft 418 kts 50°
2026-05-05 18:46 39.05830 2.34886 18252 ft 417 kts 50°
2026-05-05 18:46 39.07588 2.37815 17725 ft 415 kts 50°
2026-05-05 18:46 39.09351 2.40769 17234 ft 413 kts 52°
2026-05-05 18:47 39.11036 2.43759 16764 ft 412 kts 52°
2026-05-05 18:47 39.12733 2.46726 16305 ft 410 kts 52°
2026-05-05 18:47 39.14422 2.49659 15852 ft 407 kts 52°
2026-05-05 18:47 39.16111 2.52584 15405 ft 404 kts 52°
2026-05-05 18:48 39.17766 2.55438 14974 ft 402 kts 52°
2026-05-05 18:48 39.19456 2.58341 14533 ft 399 kts 52°
2026-05-05 18:48 39.21117 2.61184 14103 ft 396 kts 52°
2026-05-05 18:48 39.22770 2.63999 13679 ft 393 kts 52°
2026-05-05 18:49 39.24416 2.66792 13207 ft 389 kts 52°
2026-05-05 18:49 39.26048 2.69568 12737 ft 386 kts 52°
2026-05-05 18:49 39.27658 2.72312 12278 ft 382 kts 52°
2026-05-05 18:49 39.29254 2.75045 11827 ft 378 kts 52°
2026-05-05 18:50 39.30823 2.77737 11376 ft 374 kts 52°
2026-05-05 18:50 39.32373 2.80406 10927 ft 370 kts 52°
2026-05-05 18:50 39.33907 2.83057 10498 ft 366 kts 52°
2026-05-05 18:50 39.35421 2.85682 10067 ft 361 kts 52°
2026-05-05 18:51 39.36912 2.88273 9627 ft 357 kts 52°
2026-05-05 18:51 39.38379 2.90830 9153 ft 353 kts 52°
2026-05-05 18:51 39.39817 2.93348 8903 ft 342 kts 52°
2026-05-05 18:51 39.41188 2.95756 8907 ft 324 kts 52°
2026-05-05 18:52 39.42495 2.98055 8864 ft 310 kts 52°
2026-05-05 18:52 39.43759 3.00283 8552 ft 305 kts 52°
2026-05-05 18:52 39.45004 3.02489 8188 ft 303 kts 52°
2026-05-05 18:52 39.46241 3.04689 7820 ft 300 kts 52°
2026-05-05 18:53 39.47466 3.06870 7443 ft 299 kts 52°
2026-05-05 18:53 39.48680 3.09038 7070 ft 296 kts 52°
2026-05-05 18:53 39.49877 3.11182 6702 ft 294 kts 52°
2026-05-05 18:53 39.51072 3.13333 6323 ft 292 kts 52°
2026-05-05 18:54 39.52251 3.15456 6019 ft 289 kts 52°
2026-05-05 18:54 39.53419 3.17570 5987 ft 290 kts 52°
2026-05-05 18:54 39.54596 3.19695 5995 ft 291 kts 52°
2026-05-05 18:54 39.55781 3.21828 5989 ft 291 kts 52°
2026-05-05 18:55 39.56958 3.23948 5992 ft 291 kts 52°
2026-05-05 18:55 39.58139 3.26078 5992 ft 291 kts 52°
2026-05-05 18:55 39.59320 3.28206 5991 ft 291 kts 52°
2026-05-05 18:55 39.60478 3.30301 5988 ft 277 kts 52°
2026-05-05 18:56 39.61556 3.32250 5984 ft 260 kts 52°
2026-05-05 18:56 39.62581 3.34117 5985 ft 243 kts 52°
2026-05-05 18:56 39.63550 3.35884 5989 ft 239 kts 52°
2026-05-05 18:56 39.64511 3.37632 5990 ft 238 kts 52°
2026-05-05 18:57 39.65484 3.39382 5990 ft 238 kts 49°
2026-05-05 18:57 39.66759 3.40653 5993 ft 229 kts 15°
2026-05-05 18:57 39.68286 3.40845 5811 ft 216 kts 341°
2026-05-05 18:57 39.69540 3.39946 5502 ft 203 kts 307°
2026-05-05 18:58 39.70105 3.38341 5202 ft 195 kts 278°
2026-05-05 18:58 39.70240 3.36626 4982 ft 193 kts 273°
2026-05-05 18:58 39.70312 3.34866 4977 ft 196 kts 272°
2026-05-05 18:58 39.70377 3.33095 4983 ft 197 kts 272°
2026-05-05 18:59 39.70441 3.31295 4984 ft 197 kts 272°
2026-05-05 18:59 39.70504 3.29545 4984 ft 196 kts 272°
2026-05-05 18:59 39.70565 3.27771 4984 ft 197 kts 272°
2026-05-05 18:59 39.70627 3.25993 4980 ft 197 kts 272°
2026-05-05 19:00 39.70687 3.24216 4991 ft 197 kts 272°
2026-05-05 19:00 39.70748 3.22436 4985 ft 197 kts 272°
2026-05-05 19:00 39.70806 3.20655 4989 ft 197 kts 272°
2026-05-05 19:00 39.70861 3.18881 4987 ft 197 kts 272°
2026-05-05 19:01 39.70917 3.17107 4991 ft 197 kts 272°
2026-05-05 19:01 39.70978 3.15303 4992 ft 197 kts 272°
2026-05-05 19:01 39.71037 3.13547 4987 ft 197 kts 272°
2026-05-05 19:01 39.71089 3.11777 4989 ft 197 kts 272°
2026-05-05 19:02 39.71138 3.10002 4990 ft 197 kts 272°
2026-05-05 19:02 39.71195 3.08198 4992 ft 197 kts 272°
2026-05-05 19:02 39.71216 3.06443 4995 ft 197 kts 266°
2026-05-05 19:02 39.71039 3.04703 4994 ft 192 kts 262°
2026-05-05 19:03 39.70815 3.03026 4882 ft 185 kts 258°
2026-05-05 19:03 39.70381 3.01448 4487 ft 187 kts 245°
2026-05-05 19:03 39.69706 2.99992 4095 ft 189 kts 236°
2026-05-05 19:03 39.68831 2.98733 3995 ft 188 kts 226°
2026-05-05 19:04 39.67800 2.97677 3999 ft 191 kts 216°
2026-05-05 19:04 39.66600 2.96877 3999 ft 194 kts 209°
2026-05-05 19:04 39.65368 2.96160 3993 ft 194 kts 210°
2026-05-05 19:04 39.64396 2.95021 3584 ft 190 kts 243°
2026-05-05 19:05 39.63734 2.93527 3170 ft 192 kts 240°
2026-05-05 19:05 39.63039 2.92073 2857 ft 186 kts 240°
2026-05-05 19:05 39.62384 2.90693 2602 ft 175 kts 240°
2026-05-05 19:05 39.61754 2.89356 2382 ft 177 kts 240°
2026-05-05 19:06 39.61102 2.87969 2133 ft 181 kts 240°
2026-05-05 19:06 39.60446 2.86575 1894 ft 181 kts 239°
2026-05-05 19:06 39.59785 2.85172 1654 ft 181 kts 240°
2026-05-05 19:06 39.59341 2.84229 1485 ft 182 kts 239°
2026-05-05 19:07 39.58720 2.82920 1270 ft 183 kts 239°
2026-05-05 19:07 39.58087 2.81570 1017 ft 165 kts 237°
2026-05-05 19:07 39.57521 2.80369 795 ft 148 kts 238°
2026-05-05 19:07 39.57019 2.79303 598 ft 130 kts 238°
2026-05-05 19:08 39.56570 2.78351 402 ft 118 kts 237°
2026-05-05 19:08 39.56096 2.77354 268 ft 133 kts 238°
2026-05-05 19:08 39.55641 2.76392 51 ft 127 kts 238°
2026-05-05 19:08 39.55225 2.75518 24 ft 100 kts 238°
2026-05-05 19:09 39.54947 2.74905 25 ft 38 kts 241°
2026-05-05 19:09 39.54874 2.74743 30 ft 31 kts 239°
2026-05-05 19:09 39.54811 2.74520 28 ft 25 kts 259°
2026-05-05 19:09 39.54802 2.74348 28 ft 15 kts 269°
2026-05-05 19:10 39.54803 2.74248 29 ft 10 kts 271°
2026-05-05 19:10 39.54804 2.74210 29 ft 4 kts 271°
2026-05-05 19:10 39.54831 2.74126 29 ft 11 kts 312°
2026-05-05 19:10 39.54905 2.74057 28 ft 13 kts 329°
2026-05-05 19:11 39.54925 2.74041 28 ft 0 kts 329°
2026-05-05 19:11 39.54947 2.74024 28 ft 5 kts 328°
2026-05-05 19:11 39.54967 2.74008 28 ft 2 kts 329°
2026-05-05 19:11 39.54970 2.74006 28 ft 0 kts 329°
2026-05-05 19:12 39.54977 2.74001 28 ft 2 kts 329°
2026-05-05 19:12 39.54987 2.73993 28 ft 2 kts 329°
2026-05-05 19:12 39.55006 2.73978 27 ft 4 kts 330°
2026-05-05 19:12 39.55030 2.73961 27 ft 3 kts 331°
2026-05-05 19:13 39.55076 2.73929 26 ft 9 kts 331°
2026-05-05 19:13 39.55132 2.73889 28 ft 9 kts 331°
2026-05-05 19:13 39.55172 2.73831 25 ft 8 kts 281°
2026-05-05 19:13 39.55165 2.73761 25 ft 8 kts 283°
2026-05-05 19:14 39.55172 2.73697 24 ft 7 kts 262°
2026-05-05 19:14 39.55152 2.73645 25 ft 6 kts 237°
2026-05-05 19:14 39.55127 2.73594 25 ft 12 kts 237°
2026-05-05 19:14 39.55073 2.73487 26 ft 13 kts 238°
2026-05-05 19:15 39.55041 2.73413 28 ft 5 kts 244°
2026-05-05 19:15 39.55033 2.73389 30 ft 1 kts 252°
2026-05-05 19:15 39.55033 2.73386 29 ft 0 kts 255°
2026-05-05 19:16 39.54999 2.72680 23 ft 0 kts 147°
2026-05-05 19:39 39.54998 2.72680 24 ft 0 kts 147°
2026-05-05 19:39 39.55005 2.72675 23 ft 4 kts 147°
2026-05-05 19:40 39.55027 2.72656 26 ft 4 kts 147°
2026-05-05 19:40 39.55050 2.72637 23 ft 4 kts 147°
2026-05-05 19:40 39.55059 2.72630 23 ft 9 kts 148°
2026-05-05 19:40 39.55054 2.72637 23 ft 8 kts 167°
2026-05-05 19:41 39.55066 2.72657 8 ft 8 kts 41°
2026-05-05 19:41 39.55056 2.72704 24 ft 5 kts 135°
2026-05-05 19:41 39.55036 2.72733 23 ft 5 kts 130°
2026-05-05 19:41 39.55024 2.72750 23 ft 0 kts 130°